Weather Roundup
Issued by NWS Corpus Christi, TX

Home | Current Version | Previous Version | Text Only | Print | Product List | Glossary On
Versions: 1 2 3 4 5 6 7 8 9 10 11 12 13 14 15 16 17 18 19 20 21 22 23 24 25 26 27 28 29 30 31 32 33 34 35 36 37 38 39 40 41 42 43 44 45 46 47 48 49 50
000
ASUS44 KCRP 191710
HRRCRP

SOUTH TEXAS REGIONAL WEATHER ROUNDUP
NATIONAL WEATHER SERVICE CORPUS CHRISTI TX
1200 PM CDT SAT APR 19 2014


TXZ229>244-191800-
...CORPUS CHRISTI AREA OBSERVATIONS...

CITY           SKY/WX    TMP DP  RH WIND       PRES   REMARKS
CORPUS CHRISTI PTSUNNY   76  60  57 E13       30.15S
NAS CORPUS CHR PTSUNNY   73  62  68 SE15      30.16F
ROCKPORT       PTSUNNY   74  62  66 SE14      30.17R
KINGSVILLE NAS PTSUNNY   78  60  53 SE9       30.14F
ALICE          PTSUNNY   77  58  51 SE9G18    30.13F
FALFURRIAS     PTSUNNY   73  57  56 SE9G16    30.13F
$$

...VICTORIA AREA OBSERVATIONS...

CITY           SKY/WX    TMP DP  RH WIND       PRES   REMARKS
VICTORIA       MOSUNNY   77  59  53 E10       30.17F
BEEVILLE       FAIR      75  59  56 E12G18    30.15F
PLEASANTON     CLOUDY    75  53  45 E9G16     30.16S
SAN ANTONIO    PTSUNNY   74  55  51 E9        30.17F
$$

...LAREDO AREA OBSERVATIONS...

CITY           SKY/WX    TMP DP  RH WIND       PRES   REMARKS
LAREDO         CLOUDY    76  53  44 SE12      30.14F
COTULLA        PTSUNNY   75  54  47 SE13      30.15S
DEL RIO        CLOUDY    70  50  49 SE14      30.12F
MCALLEN        CLOUDY    76  64  66 SE9       30.12F
HEBBRONVILLE   CLOUDY    74  54  49 SE13      30.14S
$$

...OTHER TEXAS OBSERVATIONS...

CITY           SKY/WX    TMP DP  RH WIND       PRES   REMARKS
BROWNSVILLE    CLOUDY    76  65  68 E10       30.13F
HOUSTON        MOSUNNY   75  57  53 SE8       30.19F
COL. STATION   MOSUNNY   74  59  59 SE7       30.19F
AUSTIN         PTSUNNY   74  56  53 SE9       30.17F
WACO           SUNNY     74  57  55 SE10      30.18F
FORT WORTH     PTSUNNY   76  54  46 SE12      30.18F
WICHITA FALLS  PTSUNNY   73  50  44 SE14G21   30.14F
LUBBOCK        CLOUDY    67  52  58 S20       30.12R
EL PASO        PTSUNNY   69  50  50 NW12      30.06S
$$

...MARINE OBSERVATIONS...

STATION/POSITION TIME  SKY/WX   TEMP    WIND        PRES    VSBY  WAVE   SWELL
                                AIR SEA DIR/SP/G                  HT/PER HT/PER
                 (UTC)          (F)     (DEG/KT/KT) (MB)    (MI)  (FT/S) (FT/S)
PORT ARANSAS     1700            67 67   90/  9/ 10 1021.7R
BUOY 90 E PORT A NOT AVBL
BUOY 45 SE BAFFI 1700            68 67  120/  8/ 10 1021.2R         4/ 9   5/ 9
BUOY 200 E PT IS NOT AVBL
BUOY 15 E GALVES 1700            67 68  100/ 12/ 14 1022.1F         2/ 3
$$


USA.gov is the U.S. government's official web portal to all federal, state and local government web resources and services.